Location: Zengebe
(1.4833°N, 32.5167°E)
Time: 22:45:25
(UTC+00:00)

Cosmos 2344 - Pass Details

Date: 07 June 2020
Orbit: 1250 x 2992 km, 63.3° (Epoch: 10 July)

Event Time Altitude Azimuth Distance (km) Brightness Sun altitude
Exits shadow 01:00:16 37° 342° (NNW) 1,939 4.5 -37.5°
Drops below altitude 10° 01:04:50 10° 7° (N) 3,243 6.1 -36.5°
Sets 01:07:32 0° 12° (NNE) 4,182 6.8 -35.9°
